Location: Newark
(36.9167°N, 76.2000°W)
Time: 07:37:46
(UTC+00:00)

ISS - Visible Passes

Search period start: 01 October 2020 00:00
Search period end: 11 October 2020 00:00
Orbit: 419 x 421 km, 51.6° (Epoch: 01 October)

Date Brightness Start Highest point End Pass type
(mag) Time Alt. Az. Time Alt. Az. Time Alt. Az.
01 Oct -1.2 00:32:01 10° N 00:33:02 13° N 00:33:02 13° N visible
01 Oct -1.2 23:45:33 10° N 23:46:17 11° NNE 23:47:02 10° NNE visible
02 Oct -0.3 01:20:33 10° NW 01:20:33 10° NW 01:20:33 10° NW visible
03 Oct -1.7 00:33:28 10° NNW 00:35:10 21° N 00:35:10 21° N visible
03 Oct -2.0 23:46:27 10° NNW 23:48:57 19° NNE 23:49:49 17° NE visible
04 Oct -0.2 01:22:42 10° WNW 01:22:48 11° WNW 01:22:48 11° WNW visible
05 Oct -2.5 00:35:20 10° NW 00:37:33 38° NW 00:37:33 38° NW visible
05 Oct -3.3 23:48:05 10° NW 23:51:21 45° NE 23:52:23 33° E visible
07 Oct -1.9 00:37:45 10° WNW 00:40:21 27° WSW 00:40:21 27° WSW visible
07 Oct -3.1 23:50:09 10° WNW 23:53:26 52° SW 23:55:28 20° SSE visible
08 Oct -3.8 23:02:44 10° NW 23:06:06 83° NE 23:09:28 10° SE visible
09 Oct -0.9 23:53:08 10° W 23:55:14 16° SW 23:57:19 10° SSW visible
10 Oct -1.6 23:05:05 10° WNW 23:08:00 27° SW 23:10:55 10° SSE visible
